ATLAS 5 CENTAUR DEB, 43975

Orbit data source: Space-Track

ATLAS 5 CENTAUR DEB, 43975 is space debris in HEO originally from a launch on Wed, 17 Sep 2014 UTC launched from the Air Force Eastern Test Range (AFETR). Debris objects in space refer to the collection of defunct objects orbiting the Earth. Examples of debris include non-operational satellites, rocket bodies, and fragments generated from explosions, collisions, or faulty payload assembly.

Loading next visibility...
ATLAS 5 CENTAUR DEB details
Identifier
43975, 2014-055AE
Orbit
HEO
Last TLE update1 month ago
Origin
Flag of USULA (US)
ManufacturerUnknown
MissionSpacecraft
Bus & MotorUnknown
MassUnknown
Launch date (UTC)
2014-09-17 (10 years ago)
Launch vehicleUnknown
Launch site
Air Force Eastern Test Range (AFETR)
Object type
Payload
Rocket body
Debris
Shape & HBRUnknown
Radar Cross SectionSmall (<0.1 m²)

Expand to show TLE details & history

TLE from 1 month ago
0 ATLAS 5 CENTAUR DEB
1 43975U 14055AE  24356.05887682  .00000028  00000-0  00000-0 0  9997
2 43975  20.3071 155.0013 5106221 145.6826 261.5711  1.93216696 44483
Epoch: 2024-12-21T01:24Z
Definitive object data (Epoch: 2024-12-21T01:24:46.957Z)
Latitude-0.00001°
Longitude43.68107°
Altitude28,407.165 km
Speed2.877 km/s
True Right ascension10h 19m 58s
True Declination0° 00' 00"
Sunlit
Object was in daylight at TLE epoch
Visualization TLE readout
Latitude16.89973°
Longitude94.23972°
Altitude14,982.448 km
Speed4.763 km/s
Apparent Right ascension13h 01m 50s
Apparent Declination5° 10' 43"
Sunlit
Object is in daylight
Visualization observer readout
Local Sidereal Time21:53:53
Azimuth304.752° NW
Elevation-27.593°
Doppler factor1
Orbital elements
Apogee altitude34,758.435 km
Perigee altitude6,948.379 km
Semi-major axis27,231.544 km
Eccentricity0.5106221
Inclination20.3071°
RAAN155.0013°
Arg. of periapsis145.6826°
True anomaly214.36422°
Mean anomaly261.5711°
Eccentric anomaly237.02703°
Mean motion0.48299 °/min
BSTARUnknown
Orbital period745.36 mins
Loading maneuver chart data...

ATLAS 5 CENTAUR DEB Visibility forecast

Observer location: undefined°, undefined

Span
Click to sort rows by Start time (UTC) header in descending order
Start Az.
Max El. time (UTC)
Max El. Az.
Max El.
End time (UTC)
End Az.
68 mins2025-01-25 21:48:46.595Z249.964° W2025-01-25 22:12:46.595Z203.682° SW18.999°2025-01-25 22:56:46.595Z155.363° SSE
406 mins2025-01-26 02:37:46.595Z128.725° SE2025-01-26 07:49:46.595Z125.865° SE30.007°2025-01-26 09:23:46.595Z89.26° E
|